| time (UTC) | temp F | wind direction | speed knots | gust knots | rain 1hr in | rain 24hr in | rain mn in | humidity % | barometer mb |
| 20260507161527 | 77 | 360 | 2.6 | 0.0 | 0.00 | 0.00 | 0.00 | 24 | 1010.8 |
| 20260507160027 | 77 | 5 | 1.7 | 0.0 | 0.00 | 0.00 | 0.00 | 26 | 1010.8 |
| 20260507154525 | 78 | 5 | 0.0 | 0.0 | 0.00 | 0.00 | 0.00 | 25 | 1010.8 |
| 20260507153021 | 76 | 5 | 0.9 | 0.0 | 0.00 | 0.00 | 0.00 | 22 | 1010.9 |
| 20260507151516 | 76 | 360 | 1.7 | 0.0 | 0.00 | 0.00 | 0.00 | 23 | 1010.9 |
| 20260507150021 | 75 | 360 | 0.9 | 0.0 | 0.00 | 0.00 | 0.00 | 23 | 1010.9 |
| 20260507144519 | 73 | 360 | 3.5 | 0.0 | 0.00 | 0.00 | 0.00 | 25 | 1010.9 |
| 20260507143004 | 72 | 336 | 2.6 | 0.0 | 0.00 | 0.00 | 0.00 | 28 | 1010.9 |
| 20260507141604 | 71 | 360 | 0.9 | 0.0 | 0.00 | 0.00 | 0.00 | 29 | 1010.9 |
| 20260507140101 | 70 | 22 | 2.6 | 0.0 | 0.00 | 0.00 | 0.00 | 29 | 1010.7 |
| 20260507134603 | 69 | 22 | 3.5 | 0.0 | 0.00 | 0.00 | 0.00 | 30 | 1010.6 |
| 20260507133120 | 68 | 22 | 3.5 | 0.0 | 0.00 | 0.00 | 0.00 | 30 | 1010.5 |
| 20260507131554 | 68 | 22 | 3.5 | 0.0 | 0.00 | 0.00 | 0.00 | 30 | 1010.6 |
| 20260507130104 | 67 | 44 | 2.6 | 0.0 | 0.00 | 0.00 | 0.00 | 31 | 1010.5 |
| 20260507124546 | 66 | 52 | 1.7 | 0.0 | 0.00 | 0.00 | 0.00 | 32 | 1010.5 |
| 20260507123044 | 66 | 179 | 0.9 | 0.0 | 0.00 | 0.00 | 0.00 | 32 | 1010.5 |
| 20260507121556 | 66 | 205 | 2.6 | 0.0 | 0.00 | 0.00 | 0.00 | 31 | 1010.5 |
| 20260507120054 | 66 | 205 | 0.9 | 0.0 | 0.00 | 0.00 | 0.00 | 31 | 1010.5 |
| 20260507114624 | 67 | 205 | 0.0 | 0.0 | 0.00 | 0.00 | 0.00 | 31 | 1010.4 |
| 20260507113042 | 66 | 205 | 0.9 | 0.0 | 0.00 | 0.00 | 0.00 | 31 | 1010.5 |
| 20260507111542 | 66 | 205 | 1.7 | 0.0 | 0.00 | 0.00 | 0.00 | 31 | 1010.5 |
| 20260507110041 | 66 | 205 | 0.9 | 0.0 | 0.00 | 0.00 | 0.00 | 31 | 1010.6 |
| 20260507104539 | 67 | 205 | 2.6 | 0.0 | 0.00 | 0.00 | 0.00 | 31 | 1010.7 |
| 20260507103039 | 67 | 205 | 2.6 | 0.0 | 0.00 | 0.00 | 0.00 | 31 | 1010.9 |
| 20260507101543 | 66 | 205 | 1.7 | 0.0 | 0.00 | 0.00 | 0.00 | 33 | 1011.0 |
| 20260507100037 | 66 | 205 | 0.0 | 0.0 | 0.00 | 0.00 | 0.00 | 32 | 1011.2 |
| 20260507094534 | 67 | 205 | 0.9 | 0.0 | 0.00 | 0.00 | 0.00 | 32 | 1011.1 |
| 20260507093033 | 67 | 205 | 0.9 | 0.0 | 0.00 | 0.00 | 0.00 | 31 | 1011.1 |
| 20260507091541 | 67 | 205 | 1.7 | 0.0 | 0.00 | 0.00 | 0.00 | 32 | 1011.2 |
| 20260507090037 | 68 | 205 | 0.0 | 0.0 | 0.00 | 0.00 | 0.00 | 31 | 1011.4 |
| 20260507084530 | 68 | 205 | 0.0 | 0.0 | 0.00 | 0.00 | 0.00 | 31 | 1011.4 |
| 20260507083032 | 68 | 205 | 0.9 | 0.0 | 0.00 | 0.00 | 0.00 | 31 | 1011.6 |
| 20260507081529 | 68 | 205 | 0.0 | 0.0 | 0.00 | 0.00 | 0.00 | 32 | 1011.7 |
| 20260507080030 | 68 | 205 | 0.0 | 0.0 | 0.00 | 0.00 | 0.00 | 31 | 1011.7 |
| 20260507074526 | 68 | 205 | 0.0 | 0.0 | 0.00 | 0.00 | 0.00 | 32 | 1011.7 |
| 20260507073022 | 69 | 205 | 0.0 | 0.0 | 0.00 | 0.00 | 0.00 | 32 | 1011.5 |
| 20260507071518 | 71 | 205 | 0.0 | 0.0 | 0.00 | 0.00 | 0.00 | 30 | 1011.5 |
| 20260507070024 | 71 | 205 | 0.9 | 0.0 | 0.00 | 0.00 | 0.00 | 29 | 1011.5 |
| 20260507064515 | 72 | 205 | 1.7 | 0.0 | 0.00 | 0.00 | 0.00 | 31 | 1011.5 |
| 20260507063014 | 71 | 205 | 0.9 | 0.0 | 0.00 | 0.00 | 0.00 | 29 | 1011.4 |
| 20260507061515 | 72 | 205 | 0.9 | 0.0 | 0.00 | 0.00 | 0.00 | 30 | 1011.5 |
| 20260507060014 | 71 | 205 | 0.0 | 0.0 | 0.00 | 0.00 | 0.00 | 31 | 1011.5 |
| 20260507054519 | 72 | 205 | 0.0 | 0.0 | 0.00 | 0.00 | 0.00 | 30 | 1011.5 |
| 20260507053014 | 72 | 205 | 0.0 | 0.0 | 0.00 | 0.00 | 0.00 | 30 | 1011.5 |
| 20260507051513 | 73 | 205 | 0.0 | 0.0 | 0.00 | 0.00 | 0.00 | 27 | 1011.4 |
| 20260507050013 | 74 | 205 | 0.0 | 0.0 | 0.00 | 0.00 | 0.00 | 26 | 1011.3 |
| 20260507044512 | 75 | 205 | 0.0 | 0.0 | 0.00 | 0.00 | 0.00 | 25 | 1011.1 |
| 20260507043020 | 76 | 205 | 0.0 | 0.0 | 0.00 | 0.00 | 0.00 | 24 | 1011.0 |
| 20260507041511 | 76 | 205 | 0.0 | 0.0 | 0.00 | 0.00 | 0.00 | 24 | 1010.8 |
| 20260507040011 | 77 | 205 | 0.0 | 0.0 | 0.00 | 0.00 | 0.00 | 23 | 1010.7 |
| 20260507034509 | 77 | 205 | 0.0 | 0.0 | 0.00 | 0.00 | 0.00 | 23 | 1010.6 |
| 20260507033010 | 77 | 205 | 0.0 | 0.0 | 0.00 | 0.00 | 0.00 | 22 | 1010.3 |
| 20260507031511 | 78 | 205 | 0.0 | 0.0 | 0.00 | 0.00 | 0.00 | 22 | 1010.1 |
| 20260507030009 | 78 | 205 | 0.9 | 0.0 | 0.00 | 0.00 | 0.00 | 22 | 1010.1 |
| 20260507024511 | 78 | 205 | 1.7 | 0.0 | 0.00 | 0.00 | 0.00 | 21 | 1010.0 |
| 20260507023008 | 79 | 205 | 2.6 | 0.0 | 0.00 | 0.00 | 0.00 | 21 | 1009.7 |
| 20260507021507 | 79 | 203 | 2.6 | 0.0 | 0.00 | 0.00 | 0.00 | 20 | 1009.6 |
| 20260507020006 | 80 | 203 | 2.6 | 0.0 | 0.00 | 0.00 | 0.00 | 20 | 1009.7 |
| 20260507014506 | 80 | 207 | 2.6 | 0.0 | 0.00 | 0.00 | 0.00 | 20 | 1009.7 |
| 20260507013016 | 81 | 173 | 2.6 | 0.0 | 0.00 | 0.00 | 0.00 | 19 | 1009.7 |
| 20260507011510 | 81 | 283 | 2.6 | 0.0 | 0.00 | 0.00 | 0.00 | 19 | 1009.6 |
| 20260507010009 | 81 | 292 | 3.5 | 0.0 | 0.00 | 0.00 | 0.00 | 19 | 1009.7 |
| 20260507004504 | 82 | 178 | 3.5 | 0.0 | 0.00 | 0.00 | 0.00 | 19 | 1009.7 |
| 20260507003005 | 81 | 177 | 4.3 | 0.0 | 0.00 | 0.00 | 0.00 | 19 | 1009.7 |
| 20260507001504 | 81 | 266 | 3.5 | 0.0 | 0.00 | 0.00 | 0.00 | 19 | 1009.7 |
| 20260507000002 | 81 | 11 | 3.5 | 0.0 | 0.00 | 0.00 | 0.00 | 20 | 1009.6 |
| 20260506234500 | 82 | 319 | 2.6 | 0.0 | 0.00 | 0.00 | 0.00 | 19 | 1009.8 |
| 20260506233111 | 81 | 316 | 3.5 | 0.0 | 0.00 | 0.00 | 0.00 | 20 | 1009.8 |
| 20260506231602 | 81 | 254 | 2.6 | 0.0 | 0.00 | 0.00 | 0.00 | 20 | 1010.1 |
| 20260506230056 | 81 | 273 | 3.5 | 0.0 | 0.00 | 0.00 | 0.00 | 20 | 1010.3 |
| 20260506224554 | 80 | 247 | 4.3 | 0.0 | 0.00 | 0.00 | 0.00 | 20 | 1010.4 |
| 20260506223053 | 79 | 223 | 3.5 | 0.0 | 0.00 | 0.00 | 0.00 | 21 | 1010.6 |
| 20260506221551 | 80 | 253 | 4.3 | 0.0 | 0.00 | 0.00 | 0.00 | 21 | 1010.9 |
| 20260506220050 | 79 | 319 | 6.1 | 0.0 | 0.00 | 0.00 | 0.00 | 21 | 1010.9 |
| 20260506214553 | 80 | 329 | 2.6 | 0.0 | 0.00 | 0.00 | 0.00 | 21 | 1011.2 |
| 20260506213108 | 79 | 334 | 4.3 | 0.0 | 0.00 | 0.00 | 0.00 | 21 | 1011.4 |
| 20260506211548 | 78 | 341 | 2.6 | 0.0 | 0.00 | 0.00 | 0.00 | 22 | 1011.8 |
| 20260506210046 | 77 | 317 | 6.1 | 0.0 | 0.00 | 0.00 | 0.00 | 23 | 1011.8 |
| 20260506204543 | 77 | 345 | 4.3 | 0.0 | 0.00 | 0.00 | 0.00 | 22 | 1012.0 |
| 20260506203040 | 77 | 326 | 3.5 | 0.0 | 0.00 | 0.00 | 0.00 | 23 | 1012.2 |
| 20260506201541 | 76 | 233 | 4.3 | 0.0 | 0.00 | 0.00 | 0.00 | 24 | 1012.4 |
| 20260506200038 | 75 | 317 | 4.3 | 0.0 | 0.00 | 0.00 | 0.00 | 25 | 1012.6 |
| 20260506194538 | 76 | 306 | 3.5 | 0.0 | 0.00 | 0.00 | 0.00 | 26 | 1012.7 |
| 20260506193037 | 75 | 202 | 4.3 | 0.0 | 0.00 | 0.00 | 0.00 | 25 | 1012.8 |
| 20260506191539 | 75 | 192 | 3.5 | 0.0 | 0.00 | 0.00 | 0.00 | 25 | 1013.2 |
| 20260506190035 | 75 | 290 | 4.3 | 0.0 | 0.00 | 0.00 | 0.00 | 26 | 1013.2 |
| 20260506184545 | 74 | 265 | 0.9 | 0.0 | 0.00 | 0.00 | 0.00 | 26 | 1013.6 |
| 20260506183038 | 73 | 254 | 5.2 | 0.0 | 0.00 | 0.00 | 0.00 | 28 | 1013.7 |
| 20260506181536 | 74 | 302 | 1.7 | 0.0 | 0.00 | 0.00 | 0.00 | 29 | 1013.9 |
| 20260506180029 | 72 | 303 | 2.6 | 0.0 | 0.00 | 0.00 | 0.00 | 30 | 1013.9 |
| 20260506174524 | 71 | 302 | 4.3 | 0.0 | 0.00 | 0.00 | 0.00 | 31 | 1013.9 |
| 20260506173019 | 71 | 296 | 2.6 | 0.0 | 0.00 | 0.00 | 0.00 | 30 | 1013.8 |
| 20260506171514 | 71 | 299 | 1.7 | 0.0 | 0.00 | 0.00 | 0.00 | 32 | 1013.9 |
| 20260506170011 | 70 | 299 | 2.6 | 0.0 | 0.00 | 0.00 | 0.00 | 32 | 1013.7 |
| 20260506164509 | 69 | 298 | 1.7 | 0.0 | 0.00 | 0.00 | 0.00 | 32 | 1013.7 |
| 20260506163003 | 69 | 298 | 2.6 | 0.0 | 0.00 | 0.00 | 0.00 | 33 | 1013.7 |